Location: Gloden
(48.4833°N, 15.3167°E)
Time: 13:23:53
(UTC+00:00)

Cosmos 1486 Rocket - Pass Details

Date: 15 December 2019
Orbit: 759 x 783 km, 74.1° (Epoch: 27 January)

Event Time Altitude Azimuth Distance (km) Brightness Sun altitude
Exits shadow 04:44:11 13° 343° (NNW) 2,159 6.0 -18.7°
Maximum altitude 04:49:00 65° 64° (ENE) 854 4.4 -17.9°
Drops below altitude 10° 04:54:12 10° 146° (SSE) 2,305 7.2 -17.1°
Sets 04:56:35 0° 150° (SSE) 3,224 8.0 -16.7°
